QPF
0.01 0.01 0.01 0.01 0.01 0.00 0.00 0.00 0.00 0.00 0.00 0.00 0.01 0.02 0.02 0.02 0.03 0.02 0.02 0.03 0.02 0.01 0.01 0.01 0.01 0.01 0.02 0.03 0.05 0.06 0.06 0.05 0.04 0.05 0.05 0.04 0.03 0.03
0.02 0.01 0.01 0.00 0.00 0.00 0.00 0.00 0.00 0.00 0.00 0.00 0.01 0.01 0.02 0.02 0.02 0.02 0.01 0.03 0.03 0.03 0.03 0.03 0.03 0.03 0.03 0.03 0.03 0.03 0.03 0.03 0.03 0.03 0.03 0.02 0.02 0.02
0.02 0.01 0.01 0.01 0.00 0.00 0.00 0.00 0.00 0.00 0.00 0.00 0.00 0.00 0.01 0.02 0.02 0.02 0.02 0.02 0.01 0.02 0.03 0.03 0.02 0.02 0.02 0.02 0.02 0.02 0.03 0.02 0.02 0.02 0.02 0.02 0.02 0.02
0.01 0.01 0.01 0.00 0.00 0.00 0.00 0.00 0.00 0.00 0.00 0.00 0.00 0.00 0.01 0.01 0.02 0.02 0.03 0.03 0.02 0.02 0.02 0.02 0.02 0.01 0.01 0.01 0.01 0.01 0.02 0.02 0.01 0.01 0.01 0.01 0.01 0.01
0.01 0.01 0.01 0.01 0.00 0.00 0.00 0.00 0.00 0.00 0.00 0.01 0.00 0.00 0.00 0.01 0.01 0.02 0.03 0.03 0.03 0.03 0.04 0.04 0.03 0.02 0.01 0.02 0.01 0.01 0.01 0.01 0.01 0.01 0.01 0.01 0.01 0.01
0.01 0.00 0.00 0.01 0.01 0.00 0.00 0.00 0.00 0.00 0.00 0.00 0.00 0.01 0.01 0.01 0.01 0.02 0.03 0.04 0.04 0.03 0.03 0.04 0.04 0.03 0.02 0.02 0.01 0.01 0.00 0.00 0.00 0.01 0.01 0.01 0.01 0.01
0.01 0.00 0.00 0.00 0.01 0.01 0.00 0.00 0.00 0.01 0.01 0.00 0.00 0.01 0.01 0.01 0.01 0.02 0.03 0.03 0.04 0.03 0.04 0.04 0.04 0.04 0.03 0.02 0.01 0.01 0.00 0.00 0.00 0.01 0.01 0.01 0.01 0.01
0.01 0.01 0.01 0.00 0.00 0.01 0.01 0.01 0.01 0.01 0.01 0.01 0.00 0.01 0.01 0.01 0.01 0.02 0.03 0.04 0.06 0.05 0.04 0.04 0.04 0.03 0.02 0.02 0.01 0.00 0.00 0.00 0.00 0.00 0.01 0.01 0.01 0.01
0.00 0.01 0.01 0.01 0.00 0.00 0.00 0.00 0.00 0.00 0.01 0.01 0.01 0.00 0.01 0.01 0.01 0.02 0.02 0.04 0.05 0.05 0.04 0.03 0.03 0.03 0.02 0.01 0.01 0.01 0.00 0.00 0.00 0.00 0.01 0.01 0.01 0.01
0.00 0.00 0.01 0.01 0.01 0.01 0.01 0.00 0.00 0.00 0.00 0.00 0.01 0.01 0.01 0.01 0.01 0.02 0.02 0.03 0.04 0.05 0.04 0.03 0.03 0.03 0.02 0.02 0.02 0.02 0.01 0.01 0.00 0.00 0.00 0.00 0.00 0.00
0.00 0.00 0.00 0.01 0.01 0.02 0.01 0.01 0.00 0.00 0.00 0.00 0.00 0.01 0.01 0.01 0.01 0.02 0.03 0.04 0.05 0.05 0.05 0.04 0.04 0.04 0.03 0.02 0.02 0.02 0.01 0.01 0.00 0.00 0.00 0.00 0.00 0.00
0.00 0.00 0.00 0.01 0.01 0.02 0.01 0.01 0.01 0.00 0.01 0.01 0.01 0.01 0.00 0.01 0.01 0.02 0.03 0.04 0.04 0.05 0.04 0.04 0.06 0.05 0.05 0.03 0.02 0.01 0.01 0.01 0.00 0.00 0.00 0.00 0.00 0.01
0.00 0.00 0.00 0.01 0.01 0.01 0.01 0.01 0.01 0.01 0.01 0.01 0.01 0.02 0.01 0.01 0.02 0.02 0.03 0.03 0.03 0.04 0.04 0.04 0.06 0.07 0.07 0.05 0.02 0.01 0.01 0.01 0.00 0.00 0.01 0.00 0.00 0.01
0.01 0.01 0.01 0.01 0.01 0.02 0.01 0.01 0.01 0.02 0.02 0.02 0.02 0.03 0.03 0.02 0.03 0.03 0.04 0.04 0.03 0.03 0.03 0.04 0.05 0.07 0.07 0.07 0.04 0.01 0.01 0.01 0.01 0.01 0.00 0.01 0.01 0.01
0.01 0.01 0.01 0.01 0.02 0.02 0.02 0.01 0.02 0.01 0.02 0.02 0.03 0.04 0.04 0.04 0.03 0.04 0.05 0.05 0.05 0.04 0.04 0.05 0.05 0.06 0.07 0.07 0.06 0.03 0.02 0.02 0.03 0.03 0.02 0.01 0.01 0.01
0.01 0.02 0.02 0.02 0.02 0.02 0.02 0.02 0.02 0.02 0.02 0.01 0.02 0.04 0.05 0.06 0.06 0.05 0.05 0.06 0.06 0.06 0.05 0.07 0.07 0.08 0.08 0.07 0.07 0.06 0.04 0.04 0.05 0.05 0.04 0.02 0.02 0.02
0.01 0.02 0.02 0.02 0.02 0.02 0.02 0.01 0.01 0.02 0.02 0.02 0.02 0.02 0.05 0.07 0.08 0.07 0.07 0.06 0.07 0.07 0.07 0.08 0.09 0.10 0.09 0.08 0.07 0.07 0.06 0.06 0.08 0.07 0.05 0.04 0.04 0.04
0.02 0.01 0.02 0.02 0.01 0.01 0.01 0.01 0.01 0.01 0.01 0.02 0.02 0.03 0.03 0.05 0.08 0.08 0.08 0.08 0.07 0.07 0.07 0.09 0.10 0.10 0.09 0.08 0.08 0.08 0.08 0.08 0.08 0.06 0.05 0.06 0.06 0.06
0.02 0.01 0.01 0.01 0.01 0.01 0.01 0.01 0.01 0.01 0.01 0.02 0.02 0.02 0.03 0.04 0.05 0.08 0.07 0.07 0.07 0.08 0.09 0.09 0.09 0.09 0.09 0.08 0.08 0.09 0.11 0.10 0.10 0.07 0.05 0.05 0.06 0.06
0.02 0.01 0.01 0.02 0.01 0.01 0.01 0.01 0.02 0.02 0.02 0.02 0.03 0.03 0.03 0.03 0.04 0.05 0.06 0.06 0.06 0.07 0.09 0.09 0.08 0.09 0.10 0.10 0.10 0.10 0.12 0.12 0.10 0.08 0.05 0.04 0.05 0.05
0.02 0.02 0.02 0.02 0.01 0.01 0.01 0.01 0.02 0.03 0.04 0.04 0.04 0.04 0.04 0.04 0.04 0.04 0.05 0.07 0.07 0.07 0.09 0.09 0.08 0.10 0.13 0.14 0.15 0.15 0.13 0.11 0.09 0.06 0.04 0.04 0.05 0.05
0.02 0.01 0.01 0.01 0.02 0.01 0.01 0.01 0.02 0.03 0.04 0.05 0.05 0.05 0.06 0.06 0.05 0.05 0.06 0.07 0.09 0.08 0.09 0.08 0.09 0.12 0.15 0.16 0.18 0.17 0.13 0.10 0.09 0.07 0.05 0.02 0.03 0.05
0.03 0.03 0.02 0.02 0.02 0.02 0.02 0.02 0.02 0.03 0.03 0.04 0.05 0.05 0.05 0.05 0.06 0.06 0.07 0.07 0.09 0.09 0.10 0.10 0.11 0.14 0.15 0.16 0.16 0.15 0.14 0.12 0.10 0.09 0.06 0.04 0.03 0.04
MSLP
1021.32 1021.78 1022.25 1022.72 1023.19 1023.65 1024.09 1024.50 1024.88 1025.21 1025.49 1025.71 1025.86 1025.93 1025.95 1025.90 1025.81 1025.69 1025.56 1025.44 1025.33 1025.25 1025.20 1025.17 1025.14 1025.11 1025.05 1024.97 1024.85 1024.71 1024.55 1024.40 1024.27 1024.18 1024.15 1024.19 1024.28 1024.43
1020.79 1021.27 1021.76 1022.24 1022.71 1023.16 1023.62 1024.05 1024.47 1024.86 1025.21 1025.52 1025.77 1025.95 1026.08 1026.13 1026.13 1026.09 1026.03 1025.95 1025.88 1025.83 1025.80 1025.79 1025.78 1025.76 1025.73 1025.67 1025.58 1025.46 1025.33 1025.20 1025.09 1025.01 1024.98 1025.00 1025.08 1025.20
1020.21 1020.72 1021.22 1021.71 1022.19 1022.65 1023.11 1023.56 1024.01 1024.44 1024.86 1025.24 1025.58 1025.87 1026.09 1026.25 1026.35 1026.40 1026.41 1026.40 1026.38 1026.37 1026.37 1026.39 1026.40 1026.41 1026.41 1026.38 1026.32 1026.23 1026.13 1026.03 1025.93 1025.87 1025.84 1025.85 1025.91 1026.01
1019.58 1020.11 1020.63 1021.14 1021.62 1022.10 1022.57 1023.04 1023.51 1023.98 1024.45 1024.89 1025.31 1025.68 1025.99 1026.24 1026.43 1026.56 1026.65 1026.71 1026.76 1026.80 1026.84 1026.89 1026.94 1026.98 1027.00 1027.00 1026.97 1026.92 1026.85 1026.78 1026.71 1026.66 1026.64 1026.65 1026.70 1026.78
1018.88 1019.43 1019.96 1020.49 1021.00 1021.49 1021.98 1022.47 1022.97 1023.47 1023.97 1024.46 1024.93 1025.36 1025.74 1026.07 1026.33 1026.54 1026.71 1026.83 1026.94 1027.03 1027.12 1027.21 1027.29 1027.36 1027.41 1027.44 1027.45 1027.43 1027.40 1027.35 1027.31 1027.29 1027.29 1027.31 1027.36 1027.43
1018.09 1018.64 1019.18 1019.73 1020.26 1020.79 1021.30 1021.82 1022.35 1022.88 1023.41 1023.93 1024.43 1024.91 1025.33 1025.71 1026.03 1026.31 1026.53 1026.72 1026.88 1027.03 1027.16 1027.29 1027.40 1027.50 1027.58 1027.64 1027.68 1027.69 1027.69 1027.69 1027.69 1027.70 1027.73 1027.77 1027.84 1027.92
1017.19 1017.72 1018.28 1018.84 1019.40 1019.96 1020.51 1021.07 1021.62 1022.18 1022.73 1023.27 1023.80 1024.29 1024.75 1025.16 1025.53 1025.85 1026.12 1026.37 1026.58 1026.77 1026.95 1027.11 1027.26 1027.38 1027.49 1027.58 1027.64 1027.69 1027.73 1027.77 1027.81 1027.87 1027.94 1028.03 1028.12 1028.23
1016.20 1016.70 1017.24 1017.81 1018.40 1018.99 1019.59 1020.18 1020.77 1021.35 1021.92 1022.48 1023.02 1023.53 1024.01 1024.44 1024.84 1025.20 1025.52 1025.81 1026.07 1026.31 1026.52 1026.72 1026.89 1027.04 1027.18 1027.29 1027.38 1027.47 1027.55 1027.63 1027.73 1027.84 1027.96 1028.10 1028.24 1028.38
1015.14 1015.60 1016.12 1016.69 1017.30 1017.92 1018.55 1019.17 1019.79 1020.40 1021.00 1021.57 1022.12 1022.64 1023.14 1023.60 1024.03 1024.42 1024.78 1025.11 1025.42 1025.70 1025.95 1026.18 1026.39 1026.56 1026.72 1026.85 1026.98 1027.10 1027.22 1027.35 1027.50 1027.67 1027.85 1028.04 1028.24 1028.42
1014.07 1014.48 1014.97 1015.53 1016.14 1016.78 1017.43 1018.08 1018.73 1019.36 1019.98 1020.57 1021.13 1021.68 1022.19 1022.68 1023.14 1023.57 1023.98 1024.35 1024.71 1025.03 1025.32 1025.58 1025.82 1026.02 1026.20 1026.36 1026.51 1026.66 1026.83 1027.00 1027.20 1027.43 1027.67 1027.91 1028.15 1028.38
1013.05 1013.40 1013.86 1014.40 1014.99 1015.64 1016.30 1016.96 1017.63 1018.28 1018.90 1019.52 1020.10 1020.67 1021.21 1021.73 1022.23 1022.71 1023.16 1023.59 1023.99 1024.36 1024.69 1024.98 1025.24 1025.47 1025.68 1025.86 1026.04 1026.22 1026.42 1026.64 1026.88 1027.15 1027.44 1027.72 1028.01 1028.27
1012.12 1012.43 1012.85 1013.36 1013.93 1014.55 1015.20 1015.87 1016.53 1017.18 1017.83 1018.45 1019.06 1019.66 1020.23 1020.79 1021.34 1021.86 1022.36 1022.84 1023.28 1023.69 1024.06 1024.39 1024.68 1024.93 1025.16 1025.37 1025.57 1025.78 1026.00 1026.25 1026.53 1026.83 1027.14 1027.46 1027.77 1028.04
1011.31 1011.59 1011.97 1012.44 1012.98 1013.56 1014.19 1014.83 1015.47 1016.12 1016.77 1017.40 1018.03 1018.65 1019.27 1019.87 1020.45 1021.02 1021.57 1022.09 1022.57 1023.02 1023.42 1023.77 1024.09 1024.36 1024.61 1024.84 1025.06 1025.29 1025.54 1025.81 1026.10 1026.41 1026.73 1027.06 1027.37 1027.65
1010.59 1010.85 1011.20 1011.63 1012.12 1012.66 1013.24 1013.84 1014.46 1015.09 1015.73 1016.38 1017.02 1017.67 1018.31 1018.94 1019.56 1020.17 1020.75 1021.30 1021.81 1022.28 1022.70 1023.08 1023.41 1023.71 1023.97 1024.22 1024.46 1024.71 1024.96 1025.24 1025.53 1025.84 1026.15 1026.46 1026.75 1027.02
1009.90 1010.15 1010.48 1010.87 1011.31 1011.80 1012.33 1012.89 1013.48 1014.09 1014.72 1015.36 1016.02 1016.68 1017.34 1018.00 1018.64 1019.27 1019.87 1020.43 1020.95 1021.43 1021.86 1022.25 1022.60 1022.91 1023.19 1023.45 1023.71 1023.96 1024.22 1024.50 1024.78 1025.07 1025.35 1025.63 1025.89 1026.12
1009.14 1009.40 1009.70 1010.06 1010.46 1010.91 1011.40 1011.92 1012.48 1013.08 1013.70 1014.35 1015.01 1015.69 1016.36 1017.03 1017.68 1018.31 1018.90 1019.46 1019.98 1020.45 1020.88 1021.28 1021.63 1021.95 1022.25 1022.53 1022.80 1023.06 1023.32 1023.58 1023.84 1024.10 1024.35 1024.58 1024.79 1024.97
1008.24 1008.49 1008.78 1009.12 1009.49 1009.90 1010.36 1010.87 1011.42 1012.02 1012.65 1013.31 1013.98 1014.67 1015.35 1016.02 1016.67 1017.29 1017.86 1018.40 1018.91 1019.36 1019.78 1020.17 1020.53 1020.86 1021.17 1021.47 1021.75 1022.02 1022.28 1022.54 1022.77 1022.99 1023.20 1023.38 1023.53 1023.66
1007.13 1007.37 1007.64 1007.96 1008.31 1008.72 1009.18 1009.69 1010.26 1010.87 1011.53 1012.22 1012.92 1013.62 1014.31 1014.98 1015.62 1016.22 1016.78 1017.30 1017.77 1018.21 1018.62 1019.00 1019.37 1019.71 1020.04 1020.35 1020.65 1020.93 1021.20 1021.44 1021.65 1021.84 1021.99 1022.12 1022.22 1022.30
1005.83 1006.04 1006.28 1006.58 1006.93 1007.34 1007.82 1008.36 1008.96 1009.62 1010.32 1011.05 1011.79 1012.52 1013.23 1013.91 1014.55 1015.13 1015.67 1016.17 1016.63 1017.05 1017.45 1017.84 1018.21 1018.57 1018.92 1019.25 1019.57 1019.86 1020.12 1020.36 1020.55 1020.71 1020.83 1020.91 1020.96 1021.00
1004.41 1004.56 1004.76 1005.03 1005.37 1005.80 1006.30 1006.88 1007.54 1008.25 1009.01 1009.79 1010.58 1011.35 1012.09 1012.78 1013.43 1014.02 1014.55 1015.04 1015.50 1015.92 1016.32 1016.72 1017.10 1017.47 1017.84 1018.20 1018.53 1018.83 1019.10 1019.33 1019.51 1019.65 1019.74 1019.79 1019.81 1019.81
1003.01 1003.07 1003.20 1003.43 1003.75 1004.17 1004.69 1005.31 1006.01 1006.78 1007.59 1008.42 1009.25 1010.07 1010.84 1011.56 1012.23 1012.84 1013.39 1013.89 1014.36 1014.80 1015.22 1015.62 1016.03 1016.42 1016.80 1017.17 1017.52 1017.83 1018.11 1018.33 1018.51 1018.63 1018.70 1018.74 1018.74 1018.73
1001.80 1001.73 1001.77 1001.92 1002.19 1002.59 1003.10 1003.72 1004.44 1005.23 1006.07 1006.93 1007.80 1008.65 1009.46 1010.22 1010.92 1011.56 1012.14 1012.68 1013.17 1013.64 1014.08 1014.51 1014.93 1015.34 1015.74 1016.12 1016.47 1016.78 1017.05 1017.28 1017.45 1017.57 1017.65 1017.68 1017.68 1017.67
1000.96 1000.73 1000.64 1000.68 1000.86 1001.18 1001.64 1002.22 1002.91 1003.67 1004.50 1005.36 1006.24 1007.09 1007.92 1008.71 1009.45 1010.13 1010.75 1011.33 1011.87 1012.38 1012.85 1013.31 1013.75 1014.16 1014.56 1014.94 1015.28 1015.59 1015.86 1016.08 1016.25 1016.38 1016.47 1016.52 1016.54 1016.55
Thickness
5612 5611 5609 5608 5607 5606 5605 5603 5600 5596 5596 5598 5599 5601 5601 5602 5603 5604 5605 5607 5608 5609 5609 5610 5611 5612 5613 5614 5615 5616 5617 5619 5620 5622 5625 5627 5629 5631
5605 5604 5602 5601 5601 5600 5599 5598 5596 5593 5590 5591 5591 5592 5593 5594 5595 5596 5598 5599 5600 5601 5602 5603 5603 5604 5605 5605 5606 5607 5608 5610 5612 5614 5616 5618 5620 5622
5598 5597 5596 5595 5594 5593 5592 5591 5589 5587 5585 5584 5584 5585 5586 5586 5587 5588 5589 5590 5591 5592 5593 5594 5595 5596 5596 5597 5597 5598 5599 5601 5603 5605 5607 5610 5612 5614
5591 5590 5589 5589 5587 5585 5584 5583 5582 5581 5579 5577 5577 5578 5578 5578 5578 5579 5581 5582 5583 5584 5585 5586 5586 5587 5588 5588 5589 5589 5591 5592 5594 5596 5598 5601 5603 5605
5585 5583 5583 5581 5579 5578 5577 5576 5575 5575 5573 5571 5570 5569 5569 5570 5570 5571 5572 5573 5575 5576 5576 5577 5578 5579 5579 5580 5580 5581 5582 5583 5585 5587 5588 5591 5593 5596
5578 5577 5576 5575 5574 5573 5572 5570 5569 5567 5565 5564 5562 5562 5561 5561 5561 5561 5562 5564 5565 5567 5568 5569 5570 5570 5571 5571 5572 5573 5574 5575 5576 5578 5580 5582 5585 5587
5571 5571 5570 5570 5570 5568 5567 5564 5563 5560 5558 5556 5555 5554 5554 5553 5553 5553 5554 5555 5556 5557 5558 5560 5561 5562 5562 5563 5564 5565 5565 5566 5568 5569 5571 5574 5576 5578
5565 5564 5564 5564 5564 5563 5562 5560 5558 5555 5552 5550 5548 5547 5548 5547 5546 5546 5545 5546 5548 5550 5549 5552 5553 5554 5555 5556 5556 5557 5558 5558 5560 5561 5563 5565 5567 5569
5559 5558 5558 5558 5556 5555 5554 5554 5552 5551 5550 5546 5544 5543 5542 5543 5541 5540 5539 5539 5541 5541 5541 5544 5545 5547 5548 5549 5550 5550 5551 5551 5552 5553 5555 5557 5559 5561
5553 5552 5551 5550 5550 5549 5547 5546 5544 5543 5543 5542 5541 5541 5540 5539 5537 5536 5534 5533 5533 5534 5534 5536 5538 5540 5542 5542 5543 5543 5544 5545 5545 5546 5548 5550 5552 5554
5547 5546 5546 5544 5545 5544 5541 5539 5538 5538 5538 5537 5536 5536 5535 5534 5532 5529 5527 5527 5528 5528 5528 5529 5531 5532 5535 5536 5537 5537 5538 5538 5539 5540 5541 5543 5544 5546
5540 5539 5540 5540 5540 5538 5535 5533 5532 5531 5531 5531 5530 5529 5528 5527 5526 5524 5523 5522 5522 5523 5523 5522 5524 5524 5528 5531 5531 5531 5531 5532 5532 5533 5535 5536 5537 5538
5533 5533 5533 5534 5534 5533 5531 5529 5528 5527 5525 5524 5522 5521 5521 5520 5519 5519 5519 5518 5518 5519 5520 5518 5518 5518 5519 5522 5524 5525 5525 5525 5526 5527 5528 5529 5530 5531
5528 5528 5528 5528 5528 5527 5525 5524 5523 5521 5519 5517 5515 5515 5514 5514 5514 5514 5514 5515 5515 5516 5516 5514 5514 5514 5513 5513 5516 5518 5519 5519 5519 5520 5521 5522 5523 5525
5523 5523 5523 5523 5521 5520 5519 5519 5516 5514 5512 5510 5510 5510 5509 5509 5508 5508 5509 5509 5510 5510 5510 5510 5510 5509 5508 5508 5509 5510 5511 5513 5513 5514 5515 5516 5517 5518
5517 5516 5516 5515 5514 5513 5512 5511 5509 5508 5507 5506 5506 5505 5504 5502 5502 5502 5502 5503 5502 5503 5504 5504 5504 5504 5503 5503 5503 5504 5505 5505 5507 5507 5509 5510 5511 5513
5510 5507 5506 5505 5505 5505 5504 5504 5503 5502 5501 5500 5499 5498 5498 5497 5496 5496 5495 5495 5495 5496 5497 5497 5498 5498 5498 5498 5498 5499 5500 5500 5501 5502 5502 5504 5507 5508
5504 5501 5500 5499 5499 5499 5498 5498 5497 5497 5497 5496 5494 5493 5493 5492 5491 5490 5490 5490 5490 5491 5491 5491 5491 5491 5492 5493 5494 5495 5495 5495 5496 5496 5497 5498 5502 5503
5497 5496 5495 5494 5493 5493 5493 5493 5492 5492 5492 5490 5489 5489 5488 5487 5486 5485 5484 5484 5485 5485 5486 5485 5485 5486 5487 5490 5491 5490 5491 5491 5491 5491 5492 5493 5496 5499
5491 5491 5490 5489 5489 5488 5488 5488 5488 5487 5486 5486 5485 5484 5483 5482 5481 5481 5480 5479 5480 5480 5480 5480 5480 5481 5483 5485 5486 5487 5486 5487 5487 5488 5488 5489 5490 5492
5486 5485 5485 5484 5484 5484 5484 5483 5483 5482 5482 5481 5481 5479 5478 5477 5477 5476 5476 5476 5476 5476 5476 5476 5477 5477 5478 5478 5480 5483 5484 5484 5485 5485 5485 5485 5485 5486
5480 5480 5480 5480 5479 5479 5479 5478 5477 5477 5476 5476 5476 5475 5474 5473 5473 5473 5473 5472 5473 5472 5472 5472 5472 5472 5473 5475 5478 5480 5481 5480 5480 5479 5480 5481 5481 5482
5474 5475 5475 5475 5475 5474 5474 5473 5472 5472 5472 5471 5471 5471 5470 5469 5469 5469 5469 5469 5469 5468 5468 5467 5467 5468 5470 5472 5474 5475 5475 5475 5474 5474 5474 5475 5475 5476